CFG13R LDDU-LOWW

Flight info

Callsign CFG13R
Flight time N/A
Altitude 38000
Route MADOS L187 GEBNI DCT OBUTI OBUTI2W
Aircraft A339/H-SADE1E2E3GHIJ3J5M1P2RWXY/LB2D1

Departure

Time 2026-04-30 22:31
Airport Dubrovnik Ruđer Bošković Airport (LDDU)

Arrival

Time N/A
Airport Vienna International Airport (LOWW)
Time Latitude Longitude Altitude Speed Heading
2026-04-30 22:21 42.56149 18.26156 540 ft 0 kts 208°
2026-04-30 22:23 42.56150 18.26157 540 ft 0 kts 208°
2026-04-30 22:23 42.56170 18.26170 545 ft 3 kts 216°
2026-04-30 22:24 42.56189 18.26210 550 ft 6 kts 285°
2026-04-30 22:24 42.56187 18.26227 544 ft 0 kts 298°
2026-04-30 22:26 42.56190 18.26219 547 ft 2 kts 298°
2026-04-30 22:26 42.56205 18.26180 547 ft 7 kts 298°
2026-04-30 22:26 42.56239 18.26094 540 ft 14 kts 298°
2026-04-30 22:27 42.56297 18.25946 540 ft 22 kts 298°
2026-04-30 22:27 42.56384 18.25735 540 ft 28 kts 299°
2026-04-30 22:27 42.56583 18.25242 539 ft 31 kts 300°
2026-04-30 22:28 42.56787 18.24729 539 ft 23 kts 298°
2026-04-30 22:28 42.56824 18.24684 539 ft 17 kts 329°
2026-04-30 22:29 42.56921 18.24851 539 ft 0 kts 123°
2026-04-30 22:30 42.56892 18.24921 539 ft 38 kts 119°
2026-04-30 22:31 42.55339 18.28310 1266 ft 187 kts 116°
2026-04-30 22:32 42.53308 18.33370 3203 ft 229 kts 117°
2026-04-30 22:32 42.50532 18.35726 4330 ft 252 kts 174°
2026-04-30 22:33 42.46008 18.32134 6339 ft 266 kts 226°
2026-04-30 22:33 42.42889 18.29385 7677 ft 277 kts 205°
2026-04-30 22:34 42.37196 18.27241 9213 ft 287 kts 195°
2026-04-30 22:35 42.33391 18.25437 10333 ft 302 kts 219°
2026-04-30 22:36 42.32324 18.14683 12197 ft 329 kts 307°
2026-04-30 22:36 42.34025 18.12601 12850 ft 334 kts 328°
2026-04-30 22:37 42.40845 18.12816 14697 ft 359 kts 30°
2026-04-30 22:37 42.42800 18.14974 15240 ft 365 kts 39°
2026-04-30 22:37 42.46980 18.18927 16327 ft 367 kts 24°
2026-04-30 22:38 42.51741 18.21449 17405 ft 371 kts 15°
2026-04-30 22:38 42.56732 18.23530 18495 ft 378 kts 13°
2026-04-30 22:39 42.59307 18.24174 18967 ft 375 kts 359°
2026-04-30 22:39 42.66621 18.21205 20595 ft 370 kts 333°
2026-04-30 22:40 42.73726 18.16945 22190 ft 377 kts 333°
2026-04-30 22:41 42.81011 18.12672 23795 ft 386 kts 336°
2026-04-30 22:41 42.86117 18.10206 24772 ft 390 kts 336°
2026-04-30 22:42 42.95314 18.05715 24921 ft 379 kts 336°
2026-04-30 22:43 42.95960 18.05400 24802 ft 377 kts 336°
2026-04-30 22:43 43.00917 18.02972 24134 ft 386 kts 336°
2026-04-30 22:44 43.06000 18.00476 25033 ft 391 kts 336°
2026-04-30 22:45 43.16376 17.95375 26847 ft 401 kts 336°
2026-04-30 22:45 43.21662 17.92768 27721 ft 406 kts 336°
2026-04-30 22:46 43.26972 17.90143 28591 ft 410 kts 335°
2026-04-30 22:47 43.37867 17.84746 30229 ft 420 kts 335°
2026-04-30 22:47 43.43356 17.82021 30969 ft 423 kts 335°
2026-04-30 22:48 43.48930 17.79246 31635 ft 427 kts 335°
2026-04-30 22:49 43.56402 17.75519 32604 ft 431 kts 335°
2026-04-30 22:49 43.64916 17.71256 33466 ft 435 kts 335°
2026-04-30 22:50 43.76324 17.65527 34455 ft 435 kts 335°
2026-04-30 22:51 43.82026 17.62658 34863 ft 435 kts 335°
2026-04-30 22:51 43.87685 17.59805 35274 ft 435 kts 335°
2026-04-30 22:52 43.90535 17.58364 35482 ft 435 kts 334°
2026-04-30 22:52 43.96221 17.55484 35899 ft 435 kts 334°
2026-04-30 22:53 44.01873 17.52614 36290 ft 435 kts 334°
2026-04-30 22:53 44.07558 17.49725 36717 ft 434 kts 334°
2026-04-30 22:53 44.10397 17.48280 36918 ft 434 kts 335°
2026-04-30 22:54 44.16076 17.45384 37280 ft 435 kts 335°
2026-04-30 22:55 44.24601 17.41025 37847 ft 435 kts 335°
2026-04-30 22:55 44.30282 17.38112 38192 ft 435 kts 335°
2026-04-30 22:56 44.35971 17.35191 38387 ft 435 kts 335°
2026-04-30 22:57 44.50109 17.27904 38383 ft 433 kts 335°
2026-04-30 22:58 44.61384 17.22067 38372 ft 432 kts 335°
2026-04-30 22:59 44.78323 17.13249 38373 ft 432 kts 335°